Tracking 35334 objects as of 12-Sep-2026
HD Live streaming from Space Station
objects crossing your sky now

STARLINK-5177

Track STARLINK-5177 now!
10-day predictions
STARLINK-5177 is classified as:


NORAD ID: 54090
Int'l Code: 2022-136AR
Launch date: October 20, 2022
Source: United States (US)
Launch site: AIR FORCE EASTERN TEST RANGE (AFETR)
Your satellite tracking list
Your tracking list is empty




NASA's NSSDC Master Catalog

Two Line Element Set (TLE):
1 54090U 22136AR  26255.33335648  .00089648  00000-0  40598-2 0  9990
2 54090  53.1613 215.1624 0001833  90.0902  54.7013 15.20129002  5765
Source of the keplerian elements: AFSPC